Starlink 32766

operational
NORAD ID: 62574 Int'l Des: 2025-006 Owner: SPXS Country: US Constellation: starlink
LEOCIRCULAR

About Starlink 32766

Description loading...

Live Position

Loading 3D Globe...

Upcoming Passes

Altitude History

Altitude vs Time

uPlot chart will show altitude changes over time

Two-Line Element Set

1 62574U 25006W 25301.35278733 .00057121 00000-0 20657-2 0 9994
2 62574 43.0021 319.9227 0001035 248.1551 111.9191 15.27635754 44628
Epoch: Oct 28, 2025 • Age: 24 hours

Current Status

Altitude 481.8 km
Velocity 7.63 km/s
Sub-Earth Point 4.29°N, 39.74°W
Launch Date Jan 10, 2025
Age 0.7 years
Type internet

Technical Details

Classification Payload
Mass 730.00 kg
Dry Mass 700.00 kg
Total Mass 730.00 kg
Length 0.30 m
Diameter 4.10 m
Span 29.00 m
Shape Box + pan
Manufacturer SPXS
Bus Type Starlink V2M
Phase Status In Orbit
Owner/State SPXS/US

Large Constellations

Loading constellations...